Torna al catalogo

STARLINK-5381

AttivoComunicazioniVLEO
NORAD 54828·PAYLOAD·🇺🇸 United States

Lanciato Dec 28, 2022 da Cape Canaveral Space Force Station

Loading…

Prossimi Passaggi (prossime 24 ore)

TLE

AggiornatoSource: CelesTrak SupGP

Epoca: Sep 14, 2026, 22:23 UTC

1 54828C 22177J   26257.93312500 -.00017369  00000+0 -62949-3 0  2578
2 54828  43.0011 147.5285 0001012 250.4774  91.7120 15.27567173    18

Traccia STARLINK-5381 in tempo reale con AllMySat

Download on the App Store